Time,TemperatureF,DewpointF,PressureIn,WindDirection,WindDirectionDegrees,WindSpeedMPH,WindSpeedGustMPH,Humidity,HourlyPrecipIn,Conditions,Clouds,dailyrainin,SoftwareType,DateUTC
2013-01-09 00:00:00,62.8,57.9,30.27,ENE,68,1.6,4.0,84,0.00,,BKN250,44.43,VWS V14.01,2013-01-09 06:00:00,
2013-01-09 00:04:00,63.0,58.1,30.27,ENE,68,2.5,2.5,84,0.00,,BKN170,44.43,VWS V14.01,2013-01-09 06:04:00,
2013-01-09 00:05:00,63.0,58.1,30.27,East,90,1.1,3.1,84,0.00,,BKN250,44.43,VWS V14.01,2013-01-09 06:05:00,
2013-01-09 00:09:00,62.8,58.2,30.27,NNE,22,2.7,2.9,85,0.00,,BKN170,44.43,VWS V14.01,2013-01-09 06:09:00,
2013-01-09 00:10:00,62.8,57.9,30.27,East,90,2.9,4.0,84,0.00,,BKN250,44.43,VWS V14.01,2013-01-09 06:10:00,
2013-01-09 00:14:00,63.0,58.4,30.27,East,90,1.3,2.7,85,0.00,,BKN170,44.43,VWS V14.01,2013-01-09 06:14:00,
2013-01-09 00:15:00,63.0,58.4,30.27,ENE,68,2.7,4.0,85,0.00,,BKN250,44.43,VWS V14.01,2013-01-09 06:15:00,
2013-01-09 00:19:00,63.0,58.1,30.27,ENE,68,0.9,1.6,84,0.00,,BKN170,44.43,VWS V14.01,2013-01-09 06:19:00,
2013-01-09 00:20:00,63.0,58.1,30.27,ESE,112,1.6,2.7,84,0.00,,BKN250,44.43,VWS V14.01,2013-01-09 06:20:00,
2013-01-09 00:24:00,63.0,58.4,30.27,ENE,68,2.0,3.4,85,0.00,,BKN170,44.43,VWS V14.01,2013-01-09 06:24:00,
2013-01-09 00:25:00,63.0,58.4,30.27,NE,45,2.7,2.9,85,0.00,,BKN250,44.43,VWS V14.01,2013-01-09 06:25:00,
2013-01-09 00:29:00,63.0,58.4,30.27,East,90,0.9,2.2,85,0.00,,BKN170,44.43,VWS V14.01,2013-01-09 06:29:00,
2013-01-09 00:30:00,63.0,58.4,30.27,ENE,68,0.0,3.4,85,0.00,,BKN250,44.43,VWS V14.01,2013-01-09 06:30:00,
2013-01-09 00:34:00,62.8,58.2,30.27,ENE,68,1.1,2.7,85,0.00,,BKN170,44.43,VWS V14.01,2013-01-09 06:34:00,
2013-01-09 00:35:00,62.8,58.2,30.27,ENE,68,2.7,2.7,85,0.00,,BKN250,44.43,VWS V14.01,2013-01-09 06:35:00,
2013-01-09 00:39:00,62.8,58.2,30.27,ENE,68,2.7,2.9,85,0.00,,BKN170,44.43,VWS V14.01,2013-01-09 06:39:00,
2013-01-09 00:40:00,62.8,58.5,30.27,NNE,22,2.5,3.8,86,0.00,,BKN250,44.43,VWS V14.01,2013-01-09 06:40:00,
2013-01-09 00:44:00,62.8,58.5,30.27,East,90,0.0,1.3,86,0.00,,BKN170,44.43,VWS V14.01,2013-01-09 06:44:00,
2013-01-09 00:45:00,63.0,58.7,30.27,East,90,1.3,2.9,86,0.00,,BKN250,44.43,VWS V14.01,2013-01-09 06:45:00,
2013-01-09 00:49:00,62.8,58.5,30.27,NNE,22,2.7,3.1,86,0.00,,BKN170,44.43,VWS V14.01,2013-01-09 06:49:00,
2013-01-09 00:50:00,62.8,58.5,30.27,SE,135,0.9,3.8,86,0.00,,BKN250,44.43,VWS V14.01,2013-01-09 06:50:00,
2013-01-09 00:54:00,62.8,58.5,30.27,ENE,68,0.9,0.9,86,0.00,,BKN170,44.43,VWS V14.01,2013-01-09 06:54:00,
2013-01-09 00:55:00,62.8,58.5,30.27,ENE,68,0.0,3.1,86,0.00,,BKN250,44.43,VWS V14.01,2013-01-09 06:55:00,
2013-01-09 00:59:00,62.6,58.4,30.27,NNW,338,2.0,2.2,86,0.00,,BKN170,44.43,VWS V14.01,2013-01-09 06:59:00,
2013-01-09 01:00:00,62.8,58.5,30.27,ENE,68,2.2,4.3,86,0.00,,BKN250,44.43,VWS V14.01,2013-01-09 07:00:00,
2013-01-09 01:04:00,62.6,58.4,30.27,SE,135,0.0,1.3,86,0.00,,BKN170,44.43,VWS V14.01,2013-01-09 07:04:00,
2013-01-09 01:05:00,62.6,58.4,30.27,ENE,68,1.3,3.4,86,0.00,,BKN250,44.43,VWS V14.01,2013-01-09 07:05:00,
2013-01-09 01:09:00,62.6,58.7,30.27,ENE,68,0.0,0.0,87,0.00,,BKN170,44.43,VWS V14.01,2013-01-09 07:09:00,
2013-01-09 01:10:00,62.6,58.7,30.27,ENE,68,0.0,3.6,87,0.00,,BKN250,44.43,VWS V14.01,2013-01-09 07:10:00,
2013-01-09 01:14:00,62.4,58.5,30.27,SSE,158,0.0,0.0,87,0.00,,BKN170,44.43,VWS V14.01,2013-01-09 07:14:00,
2013-01-09 01:15:00,62.6,58.4,30.27,SSE,158,0.0,0.9,86,0.00,,BKN250,44.43,VWS V14.01,2013-01-09 07:15:00,
2013-01-09 01:19:00,62.4,58.8,30.27,ENE,68,0.0,2.2,88,0.00,,BKN170,44.43,VWS V14.01,2013-01-09 07:19:00,
2013-01-09 01:20:00,62.4,58.8,30.27,ENE,68,2.2,4.0,88,0.00,,BKN250,44.43,VWS V14.01,2013-01-09 07:20:00,
2013-01-09 01:24:00,62.2,58.7,30.27,ENE,68,0.0,0.0,88,0.00,,BKN170,44.43,VWS V14.01,2013-01-09 07:24:00,
2013-01-09 01:25:00,62.4,58.5,30.27,ENE,68,0.0,2.2,87,0.00,,BKN250,44.43,VWS V14.01,2013-01-09 07:25:00,
2013-01-09 01:29:00,62.2,58.7,30.27,ENE,68,0.0,0.0,88,0.00,,BKN170,44.43,VWS V14.01,2013-01-09 07:29:00,
2013-01-09 01:30:00,62.2,58.7,30.27,ENE,68,0.0,1.3,88,0.00,,BKN250,44.43,VWS V14.01,2013-01-09 07:30:00,
2013-01-09 01:34:00,62.2,58.7,30.27,South,180,0.0,2.7,88,0.00,,BKN170,44.43,VWS V14.01,2013-01-09 07:34:00,
2013-01-09 01:35:00,62.2,58.7,30.27,ENE,68,0.9,2.9,88,0.00,,BKN250,44.43,VWS V14.01,2013-01-09 07:35:00,
2013-01-09 01:39:00,62.2,58.7,30.27,East,90,1.1,2.7,88,0.00,,BKN170,44.43,VWS V14.01,2013-01-09 07:39:00,
2013-01-09 01:40:00,62.2,58.7,30.27,East,90,0.0,2.7,88,0.00,,BKN250,44.43,VWS V14.01,2013-01-09 07:40:00,
2013-01-09 01:45:00,62.1,58.5,30.27,ENE,68,0.0,1.1,88,0.00,,BKN170,0.00,VWS V14.01,2013-01-09 07:45:00,
2013-01-09 01:50:00,62.1,58.5,30.27,ENE,68,2.7,2.7,88,0.00,,BKN170,44.43,VWS V14.01,2013-01-09 07:50:00,
2013-01-09 01:55:00,61.9,58.3,30.27,ENE,68,0.0,1.3,88,0.00,,BKN170,44.43,VWS V14.01,2013-01-09 07:55:00,
2013-01-09 02:00:00,61.9,58.6,30.27,ESE,112,0.0,1.3,89,0.00,,BKN170,44.43,VWS V14.01,2013-01-09 08:00:00,
2013-01-09 02:05:00,61.9,58.6,30.27,East,90,2.7,3.4,89,0.00,,BKN170,44.43,VWS V14.01,2013-01-09 08:05:00,
2013-01-09 02:10:00,61.9,58.6,30.27,NNE,22,0.0,3.6,89,0.00,,BKN170,44.43,VWS V14.01,2013-01-09 08:10:00,
2013-01-09 02:15:00,61.9,58.6,30.27,ESE,112,2.7,3.4,89,0.00,,BKN170,44.43,VWS V14.01,2013-01-09 08:15:00,
2013-01-09 02:20:00,61.9,58.6,30.27,NNE,22,0.0,3.1,89,0.00,,BKN170,44.43,VWS V14.01,2013-01-09 08:20:00,
2013-01-09 02:25:00,61.7,58.4,30.27,NE,45,0.0,3.4,89,0.00,,BKN170,44.43,VWS V14.01,2013-01-09 08:25:00,
2013-01-09 02:30:00,61.7,58.4,30.27,ENE,68,2.7,2.7,89,0.00,,BKN170,44.43,VWS V14.01,2013-01-09 08:30:00,
2013-01-09 02:35:00,61.7,58.7,30.27,East,90,0.0,1.6,90,0.00,,BKN170,44.43,VWS V14.01,2013-01-09 08:35:00,
2013-01-09 02:40:00,61.7,58.7,30.27,ENE,68,1.3,3.8,90,0.00,,BKN170,44.43,VWS V14.01,2013-01-09 08:40:00,
2013-01-09 02:45:00,61.7,58.7,30.27,ESE,112,2.5,5.4,90,0.00,,BKN170,44.43,VWS V14.01,2013-01-09 08:45:00,
2013-01-09 02:50:00,61.7,58.7,30.30,ENE,68,1.1,2.5,90,0.00,,BKN170,44.43,VWS V14.01,2013-01-09 08:50:00,
2013-01-09 02:55:00,61.7,59.0,30.30,ENE,68,0.0,2.7,91,0.00,,BKN170,44.43,VWS V14.01,2013-01-09 08:55:00,
2013-01-09 03:00:00,61.9,59.2,30.30,East,90,0.0,3.1,91,0.00,,BKN170,44.43,VWS V14.01,2013-01-09 09:00:00,
2013-01-09 03:05:00,61.9,59.2,30.27,NNE,22,1.6,3.1,91,0.00,,BKN170,44.43,VWS V14.01,2013-01-09 09:05:00,
2013-01-09 03:10:00,61.9,59.2,30.27,East,90,0.9,2.9,91,0.00,,BKN170,44.43,VWS V14.01,2013-01-09 09:10:00,
2013-01-09 03:15:00,61.9,59.2,30.27,East,90,0.0,2.2,91,0.00,,BKN170,0.00,VWS V14.01,2013-01-09 09:15:00,
2013-01-09 03:20:00,61.9,59.2,30.27,SSE,158,0.0,2.0,91,0.00,,BKN170,44.43,VWS V14.01,2013-01-09 09:20:00,
2013-01-09 03:25:00,61.9,59.2,30.27,ENE,68,0.0,2.5,91,0.00,,BKN170,44.43,VWS V14.01,2013-01-09 09:25:00,
2013-01-09 03:30:00,61.9,59.2,30.27,ENE,68,0.0,3.6,91,0.00,,BKN250,44.43,VWS V14.01,2013-01-09 09:30:00,
2013-01-09 03:31:00,61.9,59.2,30.27,NE,45,2.7,2.9,91,0.00,,BKN170,44.43,VWS V14.01,2013-01-09 09:31:00,
2013-01-09 03:35:00,61.7,59.0,30.30,ENE,68,2.5,3.6,91,0.00,,BKN250,44.43,VWS V14.01,2013-01-09 09:35:00,
2013-01-09 03:36:00,61.9,59.2,30.30,ENE,68,0.0,3.4,91,0.00,,BKN170,44.43,VWS V14.01,2013-01-09 09:36:00,
2013-01-09 03:40:00,61.9,59.2,30.30,East,90,1.3,3.4,91,0.00,,BKN250,44.43,VWS V14.01,2013-01-09 09:40:00,
2013-01-09 03:41:00,61.9,59.2,30.30,ENE,68,0.0,1.6,91,0.00,,BKN170,44.43,VWS V14.01,2013-01-09 09:41:00,
2013-01-09 03:45:00,61.9,59.2,30.30,WNW,292,0.0,1.6,91,0.00,,BKN250,44.43,VWS V14.01,2013-01-09 09:45:00,
2013-01-09 03:46:00,61.9,59.2,30.30,ENE,68,0.0,2.5,91,0.00,,BKN170,44.43,VWS V14.01,2013-01-09 09:46:00,
2013-01-09 03:50:00,61.9,59.2,30.27,NW,315,0.9,2.5,91,0.00,,BKN250,44.43,VWS V14.01,2013-01-09 09:50:00,
2013-01-09 03:51:00,61.9,59.2,30.27,NE,45,0.0,4.0,91,0.00,,BKN170,44.43,VWS V14.01,2013-01-09 09:51:00,
2013-01-09 03:55:00,61.7,59.0,30.27,East,90,0.0,4.0,91,0.00,,BKN250,44.43,VWS V14.01,2013-01-09 09:55:00,
2013-01-09 03:56:00,61.7,59.0,30.27,ENE,68,0.9,4.0,91,0.00,,BKN170,44.43,VWS V14.01,2013-01-09 09:56:00,
2013-01-09 04:00:00,61.7,59.0,30.27,NE,45,0.0,4.0,91,0.00,,BKN250,44.43,VWS V14.01,2013-01-09 10:00:00,
2013-01-09 04:01:00,61.7,59.0,30.27,SE,135,0.9,3.1,91,0.00,,OVC032,44.43,VWS V14.01,2013-01-09 10:01:00,
2013-01-09 04:05:00,61.7,59.0,30.27,SE,135,0.0,3.1,91,0.00,,BKN250,44.43,VWS V14.01,2013-01-09 10:05:00,
2013-01-09 04:06:00,61.9,59.5,30.27,ENE,68,3.4,4.0,92,0.00,,OVC032,44.43,VWS V14.01,2013-01-09 10:06:00,
2013-01-09 04:10:00,61.7,59.4,30.27,East,90,0.0,4.0,92,0.00,,BKN250,44.43,VWS V14.01,2013-01-09 10:10:00,
2013-01-09 04:11:00,61.7,59.4,30.27,East,90,0.9,1.3,92,0.00,,OVC032,44.43,VWS V14.01,2013-01-09 10:11:00,
2013-01-09 04:15:00,61.7,59.4,30.27,ENE,68,2.0,2.0,92,0.00,,BKN250,44.43,VWS V14.01,2013-01-09 10:15:00,
2013-01-09 04:16:00,61.7,59.4,30.27,East,90,1.1,2.0,92,0.00,,OVC032,44.43,VWS V14.01,2013-01-09 10:16:00,
2013-01-09 04:20:00,61.9,59.5,30.27,NE,45,3.1,3.1,92,0.00,,BKN250,44.43,VWS V14.01,2013-01-09 10:20:00,
2013-01-09 04:21:00,61.9,59.5,30.27,SSE,158,0.0,3.1,92,0.00,,OVC032,44.43,VWS V14.01,2013-01-09 10:21:00,
2013-01-09 04:25:00,61.9,59.5,30.27,ENE,68,0.0,3.1,92,0.00,,BKN250,44.43,VWS V14.01,2013-01-09 10:25:00,
2013-01-09 04:26:00,61.9,59.5,30.27,East,90,0.9,2.9,92,0.00,,OVC032,44.43,VWS V14.01,2013-01-09 10:26:00,
2013-01-09 04:30:00,61.9,59.5,30.27,NE,45,1.3,2.9,92,0.00,,BKN250,44.43,VWS V14.01,2013-01-09 10:30:00,
2013-01-09 04:31:00,61.9,59.5,30.27,South,180,0.0,3.6,92,0.00,,OVC032,44.43,VWS V14.01,2013-01-09 10:31:00,
2013-01-09 04:35:00,61.9,59.5,30.27,East,90,0.0,3.6,92,0.00,,BKN250,44.43,VWS V14.01,2013-01-09 10:35:00,
2013-01-09 04:36:00,61.9,59.5,30.27,ENE,68,0.9,0.9,92,0.00,,OVC032,44.43,VWS V14.01,2013-01-09 10:36:00,
2013-01-09 04:40:00,61.9,59.5,30.27,East,90,2.0,2.0,92,0.00,,BKN250,44.43,VWS V14.01,2013-01-09 10:40:00,
2013-01-09 04:41:00,62.1,59.7,30.27,NNW,338,1.1,2.0,92,0.00,,OVC032,44.43,VWS V14.01,2013-01-09 10:41:00,
2013-01-09 04:45:00,62.1,59.7,30.27,WNW,292,1.1,2.0,92,0.00,,BKN250,44.43,VWS V14.01,2013-01-09 10:45:00,
2013-01-09 04:46:00,62.1,59.7,30.27,East,90,1.1,2.0,92,0.00,,OVC032,44.43,VWS V14.01,2013-01-09 10:46:00,
2013-01-09 04:50:00,62.1,59.7,30.30,ENE,68,0.0,2.2,92,0.00,,BKN250,44.43,VWS V14.01,2013-01-09 10:50:00,
2013-01-09 04:51:00,62.1,59.7,30.30,East,90,0.0,2.7,92,0.00,,OVC032,44.43,VWS V14.01,2013-01-09 10:51:00,
2013-01-09 04:55:00,62.1,59.7,30.30,NE,45,0.9,2.7,92,0.00,,BKN250,44.43,VWS V14.01,2013-01-09 10:55:00,
2013-01-09 04:56:00,62.1,59.7,30.30,NNE,22,3.1,3.1,92,0.00,,OVC032,44.43,VWS V14.01,2013-01-09 10:56:00,
2013-01-09 05:00:00,62.1,59.7,30.30,ENE,68,0.0,3.1,92,0.00,,BKN250,44.43,VWS V14.01,2013-01-09 11:00:00,
2013-01-09 05:01:00,62.2,60.2,30.30,ENE,68,2.7,3.1,93,0.00,,OVC032,44.43,VWS V14.01,2013-01-09 11:01:00,
2013-01-09 05:05:00,62.2,60.2,30.30,SE,135,0.0,3.1,93,0.00,,BKN250,44.43,VWS V14.01,2013-01-09 11:05:00,
2013-01-09 05:06:00,62.2,60.2,30.30,NNE,22,2.7,2.9,93,0.00,,OVC032,44.43,VWS V14.01,2013-01-09 11:06:00,
2013-01-09 05:10:00,62.2,60.2,30.30,West,270,1.6,2.9,93,0.00,,BKN250,44.43,VWS V14.01,2013-01-09 11:10:00,
2013-01-09 05:11:00,62.2,60.2,30.30,WSW,248,0.0,2.7,93,0.00,,OVC032,44.43,VWS V14.01,2013-01-09 11:11:00,
2013-01-09 05:15:00,62.2,60.2,30.30,ENE,68,1.1,2.7,93,0.00,,BKN250,44.43,VWS V14.01,2013-01-09 11:15:00,
2013-01-09 05:16:00,62.4,60.4,30.30,ESE,112,0.0,2.0,93,0.00,,OVC032,44.43,VWS V14.01,2013-01-09 11:16:00,
2013-01-09 05:20:00,62.4,60.4,30.30,South,180,1.3,2.0,93,0.00,,BKN250,44.43,VWS V14.01,2013-01-09 11:20:00,
2013-01-09 05:21:00,62.4,60.4,30.30,NNW,338,0.0,2.0,93,0.00,,OVC032,44.43,VWS V14.01,2013-01-09 11:21:00,
2013-01-09 05:25:00,62.4,60.4,30.30,East,90,1.1,2.7,93,0.00,,BKN250,44.43,VWS V14.01,2013-01-09 11:25:00,
2013-01-09 05:27:00,62.4,60.4,30.30,ENE,68,0.0,2.9,93,0.00,,OVC032,44.43,VWS V14.01,2013-01-09 11:27:00,
2013-01-09 05:30:00,62.4,60.4,30.30,ENE,68,0.0,2.9,93,0.00,,BKN250,44.43,VWS V14.01,2013-01-09 11:30:00,
2013-01-09 05:32:00,62.2,60.2,30.30,NNE,22,0.9,0.9,93,0.00,,OVC032,44.43,VWS V14.01,2013-01-09 11:32:00,
2013-01-09 05:35:00,62.2,60.2,30.33,ENE,68,0.0,1.6,93,0.00,,BKN250,44.43,VWS V14.01,2013-01-09 11:35:00,
2013-01-09 05:37:00,62.4,60.4,30.33,SE,135,0.0,3.1,93,0.00,,OVC032,44.43,VWS V14.01,2013-01-09 11:37:00,
2013-01-09 05:40:00,62.4,60.4,30.33,NE,45,1.6,3.1,93,0.00,,BKN250,44.43,VWS V14.01,2013-01-09 11:40:00,
2013-01-09 05:42:00,62.4,60.4,30.33,ENE,68,1.3,2.9,93,0.00,,OVC032,44.43,VWS V14.01,2013-01-09 11:42:00,
2013-01-09 05:45:00,62.4,60.4,30.33,ENE,68,1.6,2.9,93,0.00,,BKN250,44.43,VWS V14.01,2013-01-09 11:45:00,
2013-01-09 05:47:00,62.4,60.4,30.33,ENE,68,0.0,2.0,93,0.00,,OVC032,44.43,VWS V14.01,2013-01-09 11:47:00,
2013-01-09 05:50:00,62.4,60.4,30.33,ENE,68,0.0,2.0,93,0.00,,BKN250,44.43,VWS V14.01,2013-01-09 11:50:00,
2013-01-09 05:52:00,62.4,60.4,30.33,ENE,68,1.3,2.7,93,0.00,,OVC032,44.43,VWS V14.01,2013-01-09 11:52:00,
2013-01-09 05:55:00,62.6,60.5,30.33,ENE,68,0.9,2.7,93,0.00,,BKN250,44.43,VWS V14.01,2013-01-09 11:55:00,
2013-01-09 05:57:00,62.6,60.5,30.33,NNW,338,0.0,2.5,93,0.00,,OVC032,44.43,VWS V14.01,2013-01-09 11:57:00,
2013-01-09 06:00:00,62.4,60.4,30.33,ESE,112,0.0,2.5,93,0.00,,BKN250,44.43,VWS V14.01,2013-01-09 12:00:00,
2013-01-09 06:02:00,62.4,60.4,30.33,ENE,68,2.0,2.0,93,0.00,,OVC032,44.43,VWS V14.01,2013-01-09 12:02:00,
2013-01-09 06:05:00,62.4,60.4,30.33,NNE,22,1.1,2.0,93,0.00,,BKN250,44.43,VWS V14.01,2013-01-09 12:05:00,
2013-01-09 06:07:00,62.4,60.4,30.33,East,90,1.1,1.1,93,0.00,,OVC032,44.43,VWS V14.01,2013-01-09 12:07:00,
2013-01-09 06:10:00,62.4,60.4,30.33,ENE,68,1.1,2.7,93,0.00,,BKN250,44.43,VWS V14.01,2013-01-09 12:10:00,
2013-01-09 06:12:00,62.4,60.4,30.33,East,90,0.0,1.3,93,0.00,,OVC032,44.43,VWS V14.01,2013-01-09 12:12:00,
2013-01-09 06:15:00,62.4,60.4,30.33,NNE,22,2.5,2.5,93,0.00,,BKN250,44.43,VWS V14.01,2013-01-09 12:15:00,
2013-01-09 06:17:00,62.4,60.4,30.33,East,90,2.5,2.7,93,0.00,,OVC032,44.43,VWS V14.01,2013-01-09 12:17:00,
2013-01-09 06:20:00,62.4,60.4,30.33,East,90,0.0,2.7,93,0.00,,BKN250,44.43,VWS V14.01,2013-01-09 12:20:00,
2013-01-09 06:22:00,62.4,60.4,30.33,ENE,68,0.0,2.5,93,0.00,,OVC032,44.43,VWS V14.01,2013-01-09 12:22:00,
2013-01-09 06:25:00,62.4,60.4,30.33,ENE,68,1.1,2.5,93,0.00,,BKN250,44.43,VWS V14.01,2013-01-09 12:25:00,
2013-01-09 06:27:00,62.4,60.4,30.33,East,90,1.6,3.4,93,0.00,,OVC032,44.43,VWS V14.01,2013-01-09 12:27:00,
2013-01-09 06:30:00,62.4,60.4,30.33,East,90,0.0,3.4,93,0.00,,BKN250,44.43,VWS V14.01,2013-01-09 12:30:00,
2013-01-09 06:32:00,62.6,60.5,30.33,NNE,22,0.9,3.1,93,0.00,,OVC032,44.43,VWS V14.01,2013-01-09 12:32:00,
2013-01-09 06:35:00,62.6,60.5,30.33,NNE,22,0.0,3.1,93,0.00,,BKN250,44.43,VWS V14.01,2013-01-09 12:35:00,
2013-01-09 06:38:00,62.6,60.5,30.33,ENE,68,3.1,3.1,93,0.00,,OVC032,44.43,VWS V14.01,2013-01-09 12:38:00,
2013-01-09 06:40:00,62.6,60.5,30.33,ENE,68,0.9,3.1,93,0.00,,BKN250,44.43,VWS V14.01,2013-01-09 12:40:00,
2013-01-09 06:43:00,62.6,60.5,30.33,NNW,338,0.0,3.6,93,0.00,,OVC032,44.43,VWS V14.01,2013-01-09 12:43:00,
2013-01-09 06:45:00,62.6,60.5,30.33,WNW,292,3.6,3.6,93,0.00,,BKN250,44.43,VWS V14.01,2013-01-09 12:45:00,
2013-01-09 06:48:00,62.6,60.5,30.33,ENE,68,0.0,3.6,93,0.00,,OVC032,44.43,VWS V14.01,2013-01-09 12:48:00,
2013-01-09 06:50:00,62.6,60.5,30.33,ESE,112,4.9,4.9,93,0.00,,BKN250,44.43,VWS V14.01,2013-01-09 12:50:00,
2013-01-09 06:53:00,62.6,60.5,30.33,ENE,68,0.0,4.9,93,0.00,,OVC032,44.43,VWS V14.01,2013-01-09 12:53:00,
2013-01-09 06:55:00,62.6,60.5,30.33,ENE,68,1.3,4.9,93,0.00,,BKN250,44.43,VWS V14.01,2013-01-09 12:55:00,
2013-01-09 06:58:00,62.6,60.5,30.33,ENE,68,0.0,2.7,93,0.00,,OVC032,44.43,VWS V14.01,2013-01-09 12:58:00,
2013-01-09 07:00:00,62.6,60.5,30.33,ENE,68,0.9,2.7,93,0.00,,BKN250,44.43,VWS V14.01,2013-01-09 13:00:00,
2013-01-09 07:03:00,62.6,60.5,30.33,East,90,0.0,3.8,93,0.00,,OVC032,44.43,VWS V14.01,2013-01-09 13:03:00,
2013-01-09 07:05:00,62.6,60.5,30.33,East,90,0.0,3.8,93,0.00,,BKN250,44.43,VWS V14.01,2013-01-09 13:05:00,
2013-01-09 07:08:00,62.6,60.5,30.33,NNE,22,4.3,4.9,93,0.00,,OVC032,44.43,VWS V14.01,2013-01-09 13:08:00,
2013-01-09 07:10:00,62.6,60.5,30.33,NNE,22,4.3,4.9,93,0.00,,BKN250,44.43,VWS V14.01,2013-01-09 13:10:00,
2013-01-09 07:13:00,62.6,60.5,30.33,ENE,68,1.3,4.3,93,0.00,,OVC032,44.43,VWS V14.01,2013-01-09 13:13:00,
2013-01-09 07:15:00,62.6,60.5,30.33,ENE,68,1.3,4.3,93,0.00,,BKN250,44.43,VWS V14.01,2013-01-09 13:15:00,
2013-01-09 07:18:00,62.6,60.5,30.33,NNE,22,0.0,1.3,93,0.00,,OVC032,44.43,VWS V14.01,2013-01-09 13:18:00,
2013-01-09 07:20:00,62.6,60.5,30.33,NNE,22,0.0,1.3,93,0.00,,BKN250,44.43,VWS V14.01,2013-01-09 13:20:00,
2013-01-09 07:23:00,62.6,60.5,30.33,East,90,0.9,2.2,93,0.00,,OVC032,44.43,VWS V14.01,2013-01-09 13:23:00,
2013-01-09 07:25:00,62.6,60.5,30.33,East,90,0.0,2.2,93,0.00,,BKN250,44.43,VWS V14.01,2013-01-09 13:25:00,
2013-01-09 07:28:00,62.6,60.5,30.33,East,90,0.0,2.2,93,0.00,,OVC032,44.43,VWS V14.01,2013-01-09 13:28:00,
2013-01-09 07:30:00,62.6,60.5,30.33,East,90,0.0,2.2,93,0.00,,BKN250,44.43,VWS V14.01,2013-01-09 13:30:00,
2013-01-09 07:33:00,62.6,60.5,30.33,ENE,68,0.0,3.1,93,0.00,,OVC032,44.43,VWS V14.01,2013-01-09 13:33:00,
2013-01-09 07:35:00,62.6,60.5,30.33,ENE,68,0.0,3.1,93,0.00,,BKN250,44.43,VWS V14.01,2013-01-09 13:35:00,
2013-01-09 07:38:00,62.8,60.7,30.33,West,270,0.0,2.0,93,0.00,,OVC032,44.43,VWS V14.01,2013-01-09 13:38:00,
2013-01-09 07:40:00,62.8,60.7,30.33,West,270,0.0,2.0,93,0.00,,BKN250,44.43,VWS V14.01,2013-01-09 13:40:00,
2013-01-09 07:43:00,62.8,61.0,30.33,East,90,0.9,3.4,94,0.00,,OVC032,44.43,VWS V14.01,2013-01-09 13:43:00,
2013-01-09 07:45:00,62.8,61.0,30.33,East,90,0.9,3.4,94,0.00,,BKN250,44.43,VWS V14.01,2013-01-09 13:45:00,
2013-01-09 07:48:00,62.8,61.0,30.33,ENE,68,0.0,2.2,94,0.00,,OVC032,44.43,VWS V14.01,2013-01-09 13:48:00,
2013-01-09 07:50:00,62.8,61.0,30.33,ENE,68,0.0,2.2,94,0.00,,BKN250,44.43,VWS V14.01,2013-01-09 13:50:00,
2013-01-09 07:53:00,62.8,60.7,30.33,ESE,112,1.6,1.6,93,0.00,,OVC032,44.43,VWS V14.01,2013-01-09 13:53:00,
2013-01-09 07:55:00,62.8,60.7,30.33,ESE,112,1.6,1.6,93,0.00,,BKN250,44.43,VWS V14.01,2013-01-09 13:55:00,
2013-01-09 07:58:00,63.0,60.9,30.33,NNE,22,2.0,2.0,93,0.00,,OVC032,44.43,VWS V14.01,2013-01-09 13:58:00,
2013-01-09 08:00:00,63.0,60.9,30.33,NNE,22,0.9,1.6,93,0.00,,BKN250,44.43,VWS V14.01,2013-01-09 14:00:00,
2013-01-09 08:04:00,63.0,61.2,30.36,East,90,0.0,0.0,94,0.00,,,44.43,VWS V14.01,2013-01-09 14:04:00,
2013-01-09 08:05:00,63.0,61.2,30.36,East,90,0.0,3.6,94,0.00,,BKN250,44.43,VWS V14.01,2013-01-09 14:05:00,
2013-01-09 08:09:00,63.0,61.2,30.36,East,90,1.3,1.3,94,0.00,,,44.43,VWS V14.01,2013-01-09 14:09:00,
2013-01-09 08:10:00,63.0,61.2,30.36,ENE,68,0.0,2.7,94,0.00,,BKN250,44.43,VWS V14.01,2013-01-09 14:10:00,
2013-01-09 08:14:00,63.1,61.4,30.36,NNW,338,3.4,3.4,94,0.00,,,44.43,VWS V14.01,2013-01-09 14:14:00,
2013-01-09 08:15:00,63.1,61.4,30.36,NNW,338,3.4,3.4,94,0.00,,BKN250,44.43,VWS V14.01,2013-01-09 14:15:00,
2013-01-09 08:19:00,63.1,61.4,30.36,ENE,68,0.0,1.3,94,0.00,,,44.43,VWS V14.01,2013-01-09 14:19:00,
2013-01-09 08:20:00,63.1,61.4,30.36,East,90,1.3,3.4,94,0.00,,BKN250,44.43,VWS V14.01,2013-01-09 14:20:00,
2013-01-09 08:24:00,63.3,61.6,30.36,ENE,68,0.0,0.0,94,0.00,,,44.43,VWS V14.01,2013-01-09 14:24:00,
2013-01-09 08:25:00,63.3,61.6,30.36,ENE,68,0.0,1.3,94,0.00,,BKN250,44.43,VWS V14.01,2013-01-09 14:25:00,
2013-01-09 08:29:00,63.3,61.6,30.36,East,90,1.6,1.6,94,0.00,,,44.43,VWS V14.01,2013-01-09 14:29:00,
2013-01-09 08:30:00,63.3,61.6,30.36,ENE,68,0.0,1.6,94,0.00,,BKN250,44.43,VWS V14.01,2013-01-09 14:30:00,
2013-01-09 08:34:00,63.3,61.3,30.36,NE,45,0.0,0.0,93,0.00,,,44.43,VWS V14.01,2013-01-09 14:34:00,
2013-01-09 08:35:00,64.9,62.9,30.36,NNE,22,0.0,2.9,93,0.00,,CLR,44.43,VWS V14.01,2013-01-09 14:35:00,
2013-01-09 08:39:00,63.3,61.6,30.36,ENE,68,0.9,3.1,94,0.00,,,44.43,VWS V14.01,2013-01-09 14:39:00,
2013-01-09 08:40:00,65.3,62.9,30.36,NE,45,2.5,4.3,92,0.00,,CLR,44.43,VWS V14.01,2013-01-09 14:40:00,
2013-01-09 08:44:00,63.5,61.8,30.36,ESE,112,0.0,0.0,94,0.00,,,44.43,VWS V14.01,2013-01-09 14:44:00,
2013-01-09 08:45:00,63.5,61.8,30.36,ESE,112,0.0,3.1,94,0.00,,BKN250,44.43,VWS V14.01,2013-01-09 14:45:00,
2013-01-09 08:49:00,63.5,61.8,30.36,SSW,202,0.0,2.2,94,0.00,,,44.43,VWS V14.01,2013-01-09 14:49:00,
2013-01-09 08:50:00,65.5,63.1,30.36,SE,135,0.0,4.0,92,0.00,,BKN120,44.43,VWS V14.01,2013-01-09 14:50:00,
2013-01-09 08:54:00,63.7,61.9,30.36,East,90,1.1,1.3,94,0.00,,,44.43,VWS V14.01,2013-01-09 14:54:00,
2013-01-09 08:55:00,63.7,61.9,30.36,NNE,22,1.3,458.3,94,0.00,,BKN250,44.43,VWS V14.01,2013-01-09 14:55:00,
2013-01-09 08:59:00,63.9,62.1,30.36,East,90,0.0,0.9,94,0.00,,,44.43,VWS V14.01,2013-01-09 14:59:00,
2013-01-09 09:00:00,63.9,62.1,30.36,East,90,0.0,2.0,94,0.00,,BKN250,44.43,VWS V14.01,2013-01-09 15:00:00,
2013-01-09 09:04:00,64.0,62.3,30.36,ENE,68,1.6,2.0,94,0.00,,,44.43,VWS V14.01,2013-01-09 15:04:00,
2013-01-09 09:05:00,63.9,62.1,30.36,NNE,22,0.0,1.6,94,0.00,,BKN250,44.43,VWS V14.01,2013-01-09 15:05:00,
2013-01-09 09:09:00,64.0,62.3,30.36,ENE,68,0.0,2.7,94,0.00,,,44.43,VWS V14.01,2013-01-09 15:09:00,
2013-01-09 09:10:00,64.0,62.3,30.36,ENE,68,2.7,3.1,94,0.00,,BKN250,44.43,VWS V14.01,2013-01-09 15:10:00,
2013-01-09 09:14:00,64.2,62.2,30.36,East,90,0.9,4.3,93,0.00,,,44.43,VWS V14.01,2013-01-09 15:14:00,
2013-01-09 09:15:00,64.2,62.2,30.36,ENE,68,0.0,2.7,93,0.00,,BKN250,44.43,VWS V14.01,2013-01-09 15:15:00,
2013-01-09 09:19:00,64.4,62.3,30.36,ENE,68,0.0,2.2,93,0.00,,,44.43,VWS V14.01,2013-01-09 15:19:00,
2013-01-09 09:20:00,64.4,62.3,30.36,ESE,112,2.2,4.3,93,0.00,,BKN250,44.43,VWS V14.01,2013-01-09 15:20:00,
2013-01-09 09:24:00,64.6,62.5,30.36,East,90,1.6,1.6,93,0.00,,,44.43,VWS V14.01,2013-01-09 15:24:00,
2013-01-09 09:25:00,66.9,63.9,30.36,East,90,0.0,3.8,90,0.00,,BKN120,44.43,VWS V14.01,2013-01-09 15:25:00,
2013-01-09 09:29:00,64.8,62.7,30.36,NNE,22,1.3,2.7,93,0.00,,,44.43,VWS V14.01,2013-01-09 15:29:00,
2013-01-09 09:30:00,64.8,62.7,30.36,ENE,68,0.0,4.3,93,0.00,,BKN250,44.43,VWS V14.01,2013-01-09 15:30:00,
2013-01-09 09:35:00,65.1,63.0,30.36,ENE,68,4.3,4.3,93,0.00,,,44.43,VWS V14.01,2013-01-09 15:35:00,
2013-01-09 09:40:00,65.3,62.9,30.36,NNE,22,1.3,2.5,92,0.00,,,44.43,VWS V14.01,2013-01-09 15:40:00,
2013-01-09 09:45:00,65.3,62.9,30.36,NNW,338,4.0,4.0,92,0.00,,,44.43,VWS V14.01,2013-01-09 15:45:00,
2013-01-09 09:50:00,65.5,63.1,30.36,NNW,338,1.6,2.7,92,0.00,,,44.43,VWS V14.01,2013-01-09 15:50:00,
2013-01-09 09:55:00,65.8,63.5,30.36,NE,45,0.0,2.7,92,0.00,,,44.43,VWS V14.01,2013-01-09 15:55:00,
2013-01-09 10:00:00,65.8,63.5,30.36,South,180,0.0,3.1,92,0.00,,,44.43,VWS V14.01,2013-01-09 16:00:00,
2013-01-09 10:05:00,66.0,63.3,30.36,ENE,68,3.8,4.0,91,0.00,,,44.43,VWS V14.01,2013-01-09 16:05:00,
2013-01-09 10:10:00,66.2,63.5,30.36,ESE,112,3.8,3.8,91,0.00,,,44.43,VWS V14.01,2013-01-09 16:10:00,
2013-01-09 10:15:00,66.4,63.7,30.36,ENE,68,0.0,0.9,91,0.00,,,44.43,VWS V14.01,2013-01-09 16:15:00,
2013-01-09 10:20:00,66.4,63.7,30.36,SSE,158,0.0,3.8,91,0.00,,,44.43,VWS V14.01,2013-01-09 16:20:00,
2013-01-09 10:25:00,66.9,63.9,30.36,ENE,68,0.0,2.7,90,0.00,,,44.43,VWS V14.01,2013-01-09 16:25:00,
2013-01-09 10:30:00,67.3,64.2,30.36,ENE,68,1.6,1.6,90,0.00,,,44.43,VWS V14.01,2013-01-09 16:30:00,
2013-01-09 10:35:00,67.3,64.2,30.36,ENE,68,0.9,3.4,90,0.00,,,44.43,VWS V14.01,2013-01-09 16:35:00,
2013-01-09 10:40:00,67.6,64.6,30.36,ENE,68,0.0,2.5,90,0.00,,,44.43,VWS V14.01,2013-01-09 16:40:00,
2013-01-09 10:45:00,67.8,64.5,30.36,SSE,158,2.9,2.9,89,0.00,,,44.43,VWS V14.01,2013-01-09 16:45:00,
2013-01-09 10:50:00,68.2,64.5,30.36,ENE,68,0.9,3.1,88,0.00,,,44.43,VWS V14.01,2013-01-09 16:50:00,
2013-01-09 10:55:00,68.4,64.7,30.36,ENE,68,0.0,3.6,88,0.00,,BKN250,44.43,VWS V14.01,2013-01-09 16:55:00,
2013-01-09 10:56:00,68.4,64.7,30.36,East,90,2.0,2.2,88,0.00,,,44.43,VWS V14.01,2013-01-09 16:56:00,
2013-01-09 11:00:00,68.4,64.3,30.36,ENE,68,0.0,3.1,87,0.00,,BKN250,44.43,VWS V14.01,2013-01-09 17:00:00,
2013-01-09 11:01:00,68.5,64.8,30.36,NE,45,2.9,2.9,88,0.00,,,44.43,VWS V14.01,2013-01-09 17:01:00,
2013-01-09 11:05:00,68.4,64.7,30.36,SSE,158,2.0,2.9,88,0.00,,BKN250,44.43,VWS V14.01,2013-01-09 17:05:00,
2013-01-09 11:06:00,68.5,64.5,30.36,ENE,68,0.0,2.5,87,0.00,,,44.43,VWS V14.01,2013-01-09 17:06:00,
2013-01-09 11:10:00,68.4,64.3,30.36,ESE,112,1.1,2.5,87,0.00,,BKN250,44.43,VWS V14.01,2013-01-09 17:10:00,
2013-01-09 11:11:00,68.4,64.3,30.36,East,90,0.0,2.0,87,0.00,,,44.43,VWS V14.01,2013-01-09 17:11:00,
2013-01-09 11:15:00,68.5,64.5,30.36,East,90,0.0,2.0,87,0.00,,BKN250,44.43,VWS V14.01,2013-01-09 17:15:00,
2013-01-09 11:16:00,68.5,64.5,30.36,NE,45,0.0,2.9,87,0.00,,,44.43,VWS V14.01,2013-01-09 17:16:00,
2013-01-09 11:20:00,68.7,64.7,30.33,East,90,0.0,2.9,87,0.00,,BKN250,44.43,VWS V14.01,2013-01-09 17:20:00,
2013-01-09 11:21:00,68.9,64.9,30.33,ENE,68,0.0,1.3,87,0.00,,,44.43,VWS V14.01,2013-01-09 17:21:00,
2013-01-09 11:25:00,69.1,65.1,30.33,West,270,0.0,2.2,87,0.00,,BKN250,44.43,VWS V14.01,2013-01-09 17:25:00,
2013-01-09 11:26:00,69.3,65.2,30.33,ENE,68,3.4,3.4,87,0.00,,,44.43,VWS V14.01,2013-01-09 17:26:00,
2013-01-09 11:30:00,69.3,64.9,30.33,NE,45,0.9,3.4,86,0.00,,BKN250,44.43,VWS V14.01,2013-01-09 17:30:00,
2013-01-09 11:31:00,69.6,65.6,30.33,NNW,338,0.0,2.5,87,0.00,,,44.43,VWS V14.01,2013-01-09 17:31:00,
2013-01-09 11:35:00,69.8,65.4,30.30,SE,135,0.0,2.5,86,0.00,,BKN250,44.43,VWS V14.01,2013-01-09 17:35:00,
2013-01-09 11:36:00,70.0,65.6,30.30,ENE,68,0.0,2.0,86,0.00,,,44.43,VWS V14.01,2013-01-09 17:36:00,
2013-01-09 11:40:00,70.0,65.3,30.30,ENE,68,1.3,2.0,85,0.00,,BKN250,44.43,VWS V14.01,2013-01-09 17:40:00,
2013-01-09 11:41:00,70.2,65.4,30.30,ENE,68,1.6,1.6,85,0.00,,,44.43,VWS V14.01,2013-01-09 17:41:00,
2013-01-09 11:45:00,70.0,64.9,30.30,ENE,68,0.0,2.2,84,0.00,,BKN250,44.43,VWS V14.01,2013-01-09 17:45:00,
2013-01-09 11:46:00,70.0,64.9,30.30,ENE,68,2.0,3.1,84,0.00,,,44.43,VWS V14.01,2013-01-09 17:46:00,
2013-01-09 11:50:00,69.8,64.8,30.33,South,180,0.0,3.1,84,0.00,,BKN250,44.43,VWS V14.01,2013-01-09 17:50:00,
2013-01-09 11:51:00,70.0,65.3,30.33,South,180,0.0,0.0,85,0.00,,,44.43,VWS V14.01,2013-01-09 17:51:00,
2013-01-09 11:55:00,70.0,65.3,30.33,SSE,158,0.9,0.9,85,0.00,,BKN250,44.43,VWS V14.01,2013-01-09 17:55:00,
2013-01-09 11:56:00,70.0,65.3,30.33,East,90,0.0,2.5,85,0.00,,,44.43,VWS V14.01,2013-01-09 17:56:00,
2013-01-09 12:00:00,70.0,65.3,30.33,East,90,1.6,2.5,85,0.00,,BKN250,44.43,VWS V14.01,2013-01-09 18:00:00,
2013-01-09 12:01:00,70.0,65.3,30.33,East,90,0.0,2.0,85,0.00,,,44.43,VWS V14.01,2013-01-09 18:01:00,
2013-01-09 12:05:00,70.0,65.3,30.33,East,90,0.0,2.0,85,0.00,,BKN250,44.43,VWS V14.01,2013-01-09 18:05:00,
2013-01-09 12:06:00,70.0,65.3,30.33,ENE,68,0.9,1.3,85,0.00,,,44.43,VWS V14.01,2013-01-09 18:06:00,
2013-01-09 12:10:00,69.8,65.1,30.33,ENE,68,2.9,2.9,85,0.00,,BKN250,44.43,VWS V14.01,2013-01-09 18:10:00,
2013-01-09 12:11:00,69.8,65.1,30.33,NE,45,0.9,2.9,85,0.00,,,44.43,VWS V14.01,2013-01-09 18:11:00,
2013-01-09 12:15:00,69.8,65.1,30.33,South,180,1.1,2.9,85,0.00,,BKN250,44.43,VWS V14.01,2013-01-09 18:15:00,
2013-01-09 12:16:00,69.8,65.1,30.33,NE,45,1.1,4.3,85,0.00,,,44.43,VWS V14.01,2013-01-09 18:16:00,
2013-01-09 12:20:00,69.8,65.1,30.33,North,0,2.7,4.3,85,0.00,,BKN250,44.43,VWS V14.01,2013-01-09 18:20:00,
2013-01-09 12:21:00,69.8,65.1,30.33,ENE,68,0.0,2.7,85,0.00,,,44.43,VWS V14.01,2013-01-09 18:21:00,
2013-01-09 12:25:00,69.6,65.2,30.33,NNE,22,0.0,2.7,86,0.00,,BKN250,44.43,VWS V14.01,2013-01-09 18:25:00,
2013-01-09 12:26:00,69.6,65.2,30.33,ENE,68,0.0,0.0,86,0.00,,,44.43,VWS V14.01,2013-01-09 18:26:00,
2013-01-09 12:30:00,69.6,65.2,30.33,ENE,68,0.0,1.6,86,0.00,,BKN250,44.43,VWS V14.01,2013-01-09 18:30:00,
2013-01-09 12:31:00,69.4,65.1,30.33,ENE,68,0.0,2.0,86,0.00,,,44.43,VWS V14.01,2013-01-09 18:31:00,
2013-01-09 12:35:00,69.4,65.1,30.33,ENE,68,0.0,2.0,86,0.00,,BKN250,44.43,VWS V14.01,2013-01-09 18:35:00,
2013-01-09 12:36:00,69.4,65.1,30.33,ENE,68,0.0,1.1,86,0.00,,,44.43,VWS V14.01,2013-01-09 18:36:00,
2013-01-09 12:40:00,69.4,65.1,30.33,NNE,22,0.0,1.1,86,0.00,,BKN250,44.43,VWS V14.01,2013-01-09 18:40:00,
2013-01-09 12:41:00,69.4,65.1,30.33,NE,45,2.2,2.7,86,0.00,,,44.43,VWS V14.01,2013-01-09 18:41:00,
2013-01-09 12:42:00,69.4,65.1,30.33,ENE,68,0.9,2.7,86,0.00,,,44.43,VWS V14.01,2013-01-09 18:42:00,
2013-01-09 12:43:00,69.4,65.1,30.33,NNW,338,0.0,2.7,86,0.00,,,44.43,VWS V14.01,2013-01-09 18:43:00,
2013-01-09 12:44:00,69.4,65.1,30.33,NNE,22,0.0,0.0,86,0.00,,,44.43,VWS V14.01,2013-01-09 18:44:00,
2013-01-09 12:45:00,69.4,65.1,30.33,ENE,68,0.0,0.0,86,0.00,,,44.43,VWS V14.01,2013-01-09 18:45:00,
2013-01-09 12:48:00,69.4,65.1,30.33,ENE,68,1.1,2.5,86,0.00,,,44.43,VWS V14.01,2013-01-09 18:48:00,
2013-01-09 12:49:00,69.4,65.1,30.33,ENE,68,0.0,1.1,86,0.00,,,44.43,VWS V14.01,2013-01-09 18:49:00,
2013-01-09 12:50:00,69.4,65.1,30.33,SE,135,0.0,1.1,86,0.00,,,44.43,VWS V14.01,2013-01-09 18:50:00,
2013-01-09 12:55:00,69.4,65.1,30.33,ESE,112,0.0,1.1,86,0.00,,,44.43,VWS V14.01,2013-01-09 18:55:00,
2013-01-09 13:00:00,69.6,65.2,30.33,ENE,68,0.0,2.2,86,0.00,,,44.43,VWS V14.01,2013-01-09 19:00:00,
2013-01-09 13:05:00,69.8,65.1,30.33,ENE,68,2.2,2.2,85,0.00,,,44.43,VWS V14.01,2013-01-09 19:05:00,
2013-01-09 13:10:00,70.0,65.3,30.33,East,90,0.0,1.6,85,0.00,,,44.43,VWS V14.01,2013-01-09 19:10:00,
2013-01-09 13:15:00,70.2,65.4,30.33,ENE,68,0.0,1.6,85,0.00,,,44.43,VWS V14.01,2013-01-09 19:15:00,
2013-01-09 13:20:00,70.2,65.4,30.33,NNW,338,0.0,1.6,85,0.00,,,44.43,VWS V14.01,2013-01-09 19:20:00,
2013-01-09 13:25:00,70.0,64.9,30.33,ENE,68,0.0,2.9,84,0.00,,BKN250,44.43,VWS V14.01,2013-01-09 19:25:00,
2013-01-09 13:26:00,70.0,64.9,30.33,ENE,68,0.0,1.6,84,0.00,,,0.00,VWS V14.01,2013-01-09 19:26:00,
2013-01-09 13:30:00,70.0,64.9,30.33,ESE,112,0.0,2.7,84,0.00,,BKN250,44.43,VWS V14.01,2013-01-09 19:30:00,
2013-01-09 13:31:00,70.0,64.9,30.33,ENE,68,0.0,1.6,84,0.00,,,44.43,VWS V14.01,2013-01-09 19:31:00,
2013-01-09 13:35:00,70.0,64.9,30.33,ENE,68,0.0,2.2,84,0.00,,BKN250,44.43,VWS V14.01,2013-01-09 19:35:00,
2013-01-09 13:36:00,70.0,64.9,30.33,ENE,68,0.0,1.1,84,0.00,,,44.43,VWS V14.01,2013-01-09 19:36:00,
2013-01-09 13:40:00,70.0,64.9,30.33,East,90,2.0,2.0,84,0.00,,BKN250,44.43,VWS V14.01,2013-01-09 19:40:00,
2013-01-09 13:41:00,70.0,65.3,30.33,NNE,22,0.9,2.7,85,0.00,,,44.43,VWS V14.01,2013-01-09 19:41:00,
2013-01-09 13:45:00,70.0,65.3,30.33,NE,45,0.9,2.7,85,0.00,,BKN250,44.43,VWS V14.01,2013-01-09 19:45:00,
2013-01-09 13:46:00,70.0,65.3,30.33,ENE,68,0.0,1.3,85,0.00,,,44.43,VWS V14.01,2013-01-09 19:46:00,
2013-01-09 13:50:00,70.0,65.3,30.30,ENE,68,1.1,1.3,85,0.00,,BKN250,44.43,VWS V14.01,2013-01-09 19:50:00,
2013-01-09 13:51:00,70.0,65.3,30.30,ENE,68,0.0,2.7,85,0.00,,,44.43,VWS V14.01,2013-01-09 19:51:00,
2013-01-09 13:55:00,70.0,65.3,30.30,East,90,2.7,2.7,85,0.00,,BKN250,44.43,VWS V14.01,2013-01-09 19:55:00,
2013-01-09 13:56:00,70.0,65.3,30.30,NNE,22,0.0,3.1,85,0.00,,,44.43,VWS V14.01,2013-01-09 19:56:00,
2013-01-09 14:00:00,70.0,65.3,30.30,ENE,68,0.0,5.4,85,0.00,,BKN250,44.43,VWS V14.01,2013-01-09 20:00:00,
2013-01-09 14:01:00,70.0,65.3,30.30,East,90,0.0,2.2,85,0.00,,,44.43,VWS V14.01,2013-01-09 20:01:00,
2013-01-09 14:05:00,70.0,65.6,30.30,ENE,68,0.0,2.2,86,0.00,,BKN250,44.43,VWS V14.01,2013-01-09 20:05:00,
2013-01-09 14:06:00,70.0,65.6,30.30,ENE,68,0.0,2.7,86,0.00,,,44.43,VWS V14.01,2013-01-09 20:06:00,
2013-01-09 14:10:00,69.8,65.1,30.30,NNE,22,2.5,3.6,85,0.00,,BKN250,44.43,VWS V14.01,2013-01-09 20:10:00,
2013-01-09 14:11:00,69.8,65.1,30.30,ENE,68,0.0,2.5,85,0.00,,,44.43,VWS V14.01,2013-01-09 20:11:00,
2013-01-09 14:15:00,69.6,65.2,30.30,NE,45,0.0,2.5,86,0.00,,BKN250,44.43,VWS V14.01,2013-01-09 20:15:00,
2013-01-09 14:16:00,69.6,65.2,30.30,ENE,68,0.0,1.1,86,0.00,,,44.43,VWS V14.01,2013-01-09 20:16:00,
2013-01-09 14:20:00,69.6,65.2,30.30,East,90,1.3,1.3,86,0.00,,BKN250,44.43,VWS V14.01,2013-01-09 20:20:00,
2013-01-09 14:21:00,69.6,65.2,30.30,ENE,68,0.0,2.7,86,0.00,,,44.43,VWS V14.01,2013-01-09 20:21:00,
2013-01-09 14:25:00,69.6,65.2,30.30,ENE,68,0.0,2.9,86,0.00,,BKN250,44.43,VWS V14.01,2013-01-09 20:25:00,
2013-01-09 14:27:00,69.6,65.2,30.30,ENE,68,0.0,1.3,86,0.00,,,44.43,VWS V14.01,2013-01-09 20:27:00,
2013-01-09 14:30:00,69.6,65.2,30.30,ENE,68,0.0,1.3,86,0.00,,BKN250,44.43,VWS V14.01,2013-01-09 20:30:00,
2013-01-09 14:32:00,69.6,65.2,30.30,ENE,68,0.0,2.9,86,0.00,,,44.43,VWS V14.01,2013-01-09 20:32:00,
2013-01-09 14:35:00,69.8,65.4,30.30,WNW,292,0.0,2.9,86,0.00,,BKN250,44.43,VWS V14.01,2013-01-09 20:35:00,
2013-01-09 14:37:00,69.8,65.4,30.30,ENE,68,0.0,2.5,86,0.00,,,44.43,VWS V14.01,2013-01-09 20:37:00,
2013-01-09 14:40:00,69.8,65.4,30.30,NNW,338,0.0,2.5,86,0.00,,BKN250,44.43,VWS V14.01,2013-01-09 20:40:00,
2013-01-09 14:42:00,69.8,65.4,30.30,ESE,112,0.0,1.1,86,0.00,,,44.43,VWS V14.01,2013-01-09 20:42:00,
2013-01-09 14:45:00,69.8,65.4,30.30,ESE,112,2.0,2.0,86,0.00,,BKN250,44.43,VWS V14.01,2013-01-09 20:45:00,
2013-01-09 14:47:00,69.8,65.4,30.30,ENE,68,0.0,2.0,86,0.00,,,44.43,VWS V14.01,2013-01-09 20:47:00,
2013-01-09 14:50:00,69.6,65.6,30.33,ENE,68,1.1,2.0,87,0.00,,BKN250,44.43,VWS V14.01,2013-01-09 20:50:00,
2013-01-09 14:52:00,69.8,65.4,30.33,East,90,0.0,2.9,86,0.00,,,44.43,VWS V14.01,2013-01-09 20:52:00,
2013-01-09 14:55:00,69.8,65.4,30.33,NE,45,2.2,2.9,86,0.00,,BKN250,44.43,VWS V14.01,2013-01-09 20:55:00,
2013-01-09 14:57:00,69.8,65.4,30.33,ENE,68,0.0,2.5,86,0.00,,,44.43,VWS V14.01,2013-01-09 20:57:00,
2013-01-09 15:00:00,69.8,65.4,30.33,East,90,2.2,2.5,86,0.00,,BKN250,44.43,VWS V14.01,2013-01-09 21:00:00,
2013-01-09 15:02:00,69.8,65.4,30.33,East,90,2.9,3.1,86,0.00,,,0.00,VWS V14.01,2013-01-09 21:02:00,
2013-01-09 15:05:00,69.6,65.6,30.30,ENE,68,0.0,3.1,87,0.00,,BKN250,44.43,VWS V14.01,2013-01-09 21:05:00,
2013-01-09 15:07:00,69.4,65.4,30.30,ENE,68,0.0,3.4,87,0.00,,,44.43,VWS V14.01,2013-01-09 21:07:00,
2013-01-09 15:10:00,69.4,65.4,30.30,ENE,68,0.0,3.4,87,0.00,,BKN250,44.43,VWS V14.01,2013-01-09 21:10:00,
2013-01-09 15:12:00,69.4,65.4,30.30,East,90,0.0,0.0,87,0.00,,,44.43,VWS V14.01,2013-01-09 21:12:00,
2013-01-09 15:15:00,69.4,65.4,30.30,East,90,0.0,0.0,87,0.00,,BKN250,44.43,VWS V14.01,2013-01-09 21:15:00,
2013-01-09 15:17:00,69.3,65.2,30.30,ENE,68,0.0,0.9,87,0.00,,,44.43,VWS V14.01,2013-01-09 21:17:00,
2013-01-09 15:20:00,69.3,65.2,30.30,ENE,68,0.0,0.9,87,0.00,,BKN250,44.43,VWS V14.01,2013-01-09 21:20:00,
2013-01-09 15:22:00,69.3,65.2,30.30,ENE,68,0.0,2.7,87,0.00,,,44.43,VWS V14.01,2013-01-09 21:22:00,
2013-01-09 15:25:00,69.3,65.2,30.30,ENE,68,3.1,3.1,87,0.00,,BKN250,44.43,VWS V14.01,2013-01-09 21:25:00,
2013-01-09 15:27:00,69.1,65.1,30.30,NNW,338,0.0,3.1,87,0.00,,,44.43,VWS V14.01,2013-01-09 21:27:00,
2013-01-09 15:30:00,69.1,65.1,30.30,ENE,68,0.0,3.1,87,0.00,,BKN250,44.43,VWS V14.01,2013-01-09 21:30:00,
2013-01-09 15:32:00,69.1,65.4,30.30,NNE,22,0.0,2.7,88,0.00,,,44.43,VWS V14.01,2013-01-09 21:32:00,
2013-01-09 15:35:00,69.1,65.4,30.30,NNE,22,1.6,3.1,88,0.00,,BKN250,44.43,VWS V14.01,2013-01-09 21:35:00,
2013-01-09 15:37:00,68.9,65.2,30.30,ENE,68,0.0,2.9,88,0.00,,,44.43,VWS V14.01,2013-01-09 21:37:00,
2013-01-09 15:40:00,68.9,65.2,30.30,ENE,68,0.0,2.9,88,0.00,,BKN250,44.43,VWS V14.01,2013-01-09 21:40:00,
2013-01-09 15:43:00,68.7,65.0,30.30,ENE,68,0.0,2.7,88,0.00,,,44.43,VWS V14.01,2013-01-09 21:43:00,
2013-01-09 15:45:00,68.7,65.0,30.30,ENE,68,0.0,2.7,88,0.00,,BKN250,44.43,VWS V14.01,2013-01-09 21:45:00,
2013-01-09 15:48:00,68.7,65.0,30.30,ENE,68,0.9,2.2,88,0.00,,,44.43,VWS V14.01,2013-01-09 21:48:00,
2013-01-09 15:50:00,68.7,65.0,30.30,ENE,68,1.6,2.2,88,0.00,,BKN250,44.43,VWS V14.01,2013-01-09 21:50:00,
2013-01-09 15:53:00,68.5,64.8,30.33,East,90,0.0,2.5,88,0.00,,,44.43,VWS V14.01,2013-01-09 21:53:00,
2013-01-09 15:55:00,68.5,64.8,30.33,East,90,0.0,2.5,88,0.00,,BKN250,44.43,VWS V14.01,2013-01-09 21:55:00,
2013-01-09 15:58:00,68.5,65.2,30.33,North,0,0.0,2.2,89,0.00,,,44.43,VWS V14.01,2013-01-09 21:58:00,
2013-01-09 16:00:00,68.4,64.7,30.33,NNE,22,3.6,3.6,88,0.00,,BKN250,44.43,VWS V14.01,2013-01-09 22:00:00,
2013-01-09 16:03:00,68.4,65.0,30.33,ENE,68,1.3,7.4,89,0.00,,OVC007,44.43,VWS V14.01,2013-01-09 22:03:00,
2013-01-09 16:05:00,68.4,65.0,30.33,ESE,112,3.6,7.4,89,0.00,,BKN250,44.43,VWS V14.01,2013-01-09 22:05:00,
2013-01-09 16:08:00,68.2,65.1,30.33,East,90,0.0,3.6,90,0.00,,OVC007,44.43,VWS V14.01,2013-01-09 22:08:00,
2013-01-09 16:10:00,68.2,65.1,30.33,East,90,0.9,3.6,90,0.00,,BKN250,44.43,VWS V14.01,2013-01-09 22:10:00,
2013-01-09 16:13:00,68.0,65.0,30.33,ENE,68,0.0,3.1,90,0.00,,OVC007,44.43,VWS V14.01,2013-01-09 22:13:00,
2013-01-09 16:15:00,68.0,65.0,30.33,ENE,68,0.0,3.1,90,0.00,,BKN250,44.43,VWS V14.01,2013-01-09 22:15:00,
2013-01-09 16:18:00,67.8,65.1,30.33,ENE,68,0.0,2.5,91,0.00,,OVC007,44.43,VWS V14.01,2013-01-09 22:18:00,
2013-01-09 16:20:00,67.8,65.1,30.33,ENE,68,0.0,2.5,91,0.00,,BKN250,44.43,VWS V14.01,2013-01-09 22:20:00,
2013-01-09 16:23:00,67.6,64.9,30.33,East,90,0.0,3.6,91,0.00,,OVC007,44.43,VWS V14.01,2013-01-09 22:23:00,
2013-01-09 16:25:00,67.6,64.9,30.33,East,90,0.0,3.6,91,0.00,,BKN250,44.43,VWS V14.01,2013-01-09 22:25:00,
2013-01-09 16:28:00,67.5,64.8,30.33,ENE,68,0.0,2.7,91,0.00,,OVC007,44.43,VWS V14.01,2013-01-09 22:28:00,
2013-01-09 16:30:00,67.5,64.8,30.33,ENE,68,0.0,2.7,91,0.00,,BKN250,44.43,VWS V14.01,2013-01-09 22:30:00,
2013-01-09 16:33:00,67.3,64.6,30.33,East,90,0.0,2.0,91,0.00,,OVC007,44.43,VWS V14.01,2013-01-09 22:33:00,
2013-01-09 16:35:00,67.3,64.6,30.33,East,90,0.0,2.0,91,0.00,,BKN250,44.43,VWS V14.01,2013-01-09 22:35:00,
2013-01-09 16:38:00,67.1,64.7,30.33,SSE,158,0.0,3.1,92,0.00,,OVC007,44.43,VWS V14.01,2013-01-09 22:38:00,
2013-01-09 16:40:00,67.1,64.7,30.33,SSE,158,0.0,3.1,92,0.00,,BKN250,44.43,VWS V14.01,2013-01-09 22:40:00,
2013-01-09 16:43:00,67.1,64.7,30.33,ENE,68,0.0,0.0,92,0.00,,OVC007,44.43,VWS V14.01,2013-01-09 22:43:00,
2013-01-09 16:45:00,67.1,64.7,30.33,ENE,68,0.0,3.8,92,0.00,,BKN250,44.43,VWS V14.01,2013-01-09 22:45:00,
2013-01-09 16:48:00,67.1,64.7,30.33,ENE,68,0.0,0.0,92,0.00,,OVC007,44.43,VWS V14.01,2013-01-09 22:48:00,
2013-01-09 16:50:00,67.1,64.7,30.33,NE,45,0.0,1.1,92,0.00,,BKN250,44.43,VWS V14.01,2013-01-09 22:50:00,
2013-01-09 16:53:00,66.9,64.5,30.33,NE,45,0.0,0.0,92,0.00,,OVC007,44.43,VWS V14.01,2013-01-09 22:53:00,
2013-01-09 16:55:00,66.9,64.5,30.33,NE,45,0.0,2.2,92,0.00,,BKN250,44.43,VWS V14.01,2013-01-09 22:55:00,
2013-01-09 16:58:00,66.9,64.5,30.33,ENE,68,0.0,0.0,92,0.00,,OVC007,44.43,VWS V14.01,2013-01-09 22:58:00,
2013-01-09 17:00:00,66.9,64.5,30.33,ENE,68,0.0,1.6,92,0.00,,BKN250,44.43,VWS V14.01,2013-01-09 23:00:00,
2013-01-09 17:03:00,66.7,64.7,30.33,ENE,68,0.0,0.0,93,0.00,,OVC007,44.43,VWS V14.01,2013-01-09 23:03:00,
2013-01-09 17:05:00,66.7,64.7,30.33,ENE,68,0.0,0.0,93,0.00,,BKN250,44.43,VWS V14.01,2013-01-09 23:05:00,
2013-01-09 17:08:00,66.7,64.7,30.33,ENE,68,0.9,0.9,93,0.00,,OVC007,44.43,VWS V14.01,2013-01-09 23:08:00,
2013-01-09 17:10:00,66.7,64.7,30.33,ENE,68,0.0,1.3,93,0.00,,BKN250,44.43,VWS V14.01,2013-01-09 23:10:00,
2013-01-09 17:13:00,66.6,64.5,30.33,ENE,68,0.0,0.0,93,0.00,,OVC007,44.43,VWS V14.01,2013-01-09 23:13:00,
2013-01-09 17:15:00,66.6,64.5,30.33,ENE,68,0.0,2.0,93,0.00,,BKN250,44.43,VWS V14.01,2013-01-09 23:15:00,
2013-01-09 17:18:00,66.6,64.5,30.30,ENE,68,0.0,0.0,93,0.00,,OVC007,44.43,VWS V14.01,2013-01-09 23:18:00,
2013-01-09 17:20:00,66.6,64.5,30.30,ENE,68,0.0,0.0,93,0.00,,BKN250,44.43,VWS V14.01,2013-01-09 23:20:00,
2013-01-09 17:24:00,66.4,64.3,30.30,ENE,68,0.0,0.0,93,0.00,,OVC007,44.43,VWS V14.01,2013-01-09 23:24:00,
2013-01-09 17:25:00,66.4,64.3,30.30,ENE,68,0.0,0.0,93,0.00,,BKN250,44.43,VWS V14.01,2013-01-09 23:25:00,
2013-01-09 17:29:00,66.4,64.6,30.30,ENE,68,0.0,0.0,94,0.00,,OVC007,44.43,VWS V14.01,2013-01-09 23:29:00,
2013-01-09 17:30:00,66.4,64.6,30.30,ENE,68,0.0,0.0,94,0.00,,BKN250,44.43,VWS V14.01,2013-01-09 23:30:00,
2013-01-09 17:34:00,66.4,64.6,30.33,ENE,68,0.0,0.0,94,0.00,,OVC007,44.43,VWS V14.01,2013-01-09 23:34:00,
2013-01-09 17:35:00,65.8,64.4,30.36,North,0,0.0,2.0,95,0.00,,BKN120,44.43,VWS V14.01,2013-01-09 23:35:00,
2013-01-09 17:39:00,66.4,64.6,30.33,ENE,68,0.0,0.0,94,0.00,,OVC007,0.00,VWS V14.01,2013-01-09 23:39:00,
2013-01-09 17:40:00,66.4,64.6,30.33,ENE,68,0.0,0.0,94,0.00,,BKN250,44.43,VWS V14.01,2013-01-09 23:40:00,
2013-01-09 17:44:00,66.2,64.4,30.33,ENE,68,0.0,0.0,94,0.00,,OVC007,44.43,VWS V14.01,2013-01-09 23:44:00,
2013-01-09 17:45:00,66.2,64.4,30.33,ENE,68,0.0,0.0,94,0.00,,BKN250,44.43,VWS V14.01,2013-01-09 23:45:00,
2013-01-09 17:49:00,66.2,64.4,30.33,ENE,68,0.0,0.0,94,0.00,,OVC007,44.43,VWS V14.01,2013-01-09 23:49:00,
2013-01-09 17:50:00,66.2,64.4,30.33,ENE,68,0.0,0.0,94,0.00,,BKN250,44.43,VWS V14.01,2013-01-09 23:50:00,
2013-01-09 17:54:00,66.2,64.4,30.33,ENE,68,0.0,0.0,94,0.00,,OVC007,44.43,VWS V14.01,2013-01-09 23:54:00,
2013-01-09 17:55:00,66.2,64.4,30.33,ENE,68,0.0,0.0,94,0.00,,BKN250,44.43,VWS V14.01,2013-01-09 23:55:00,
2013-01-09 17:59:00,66.2,64.4,30.33,ENE,68,0.0,0.0,94,0.00,,OVC007,44.43,VWS V14.01,2013-01-09 23:59:00,
2013-01-09 18:00:00,66.2,64.4,30.33,ENE,68,0.0,1.6,94,0.00,,BKN250,44.43,VWS V14.01,2013-01-10 00:00:00,
2013-01-09 18:04:00,66.2,64.4,30.33,East,90,0.0,2.7,94,0.00,,OVC007,44.43,VWS V14.01,2013-01-10 00:04:00,
2013-01-09 18:05:00,66.2,64.4,30.33,East,90,2.7,2.7,94,0.00,,BKN250,44.43,VWS V14.01,2013-01-10 00:05:00,
2013-01-09 18:09:00,66.0,64.6,30.33,East,90,0.0,0.0,95,0.00,,OVC007,44.43,VWS V14.01,2013-01-10 00:09:00,
2013-01-09 18:10:00,66.0,64.6,30.33,East,90,0.0,2.7,95,0.00,,BKN250,44.43,VWS V14.01,2013-01-10 00:10:00,
2013-01-09 18:14:00,66.0,64.6,30.33,East,90,0.0,1.6,95,0.00,,OVC007,44.43,VWS V14.01,2013-01-10 00:14:00,
2013-01-09 18:15:00,66.0,64.6,30.33,East,90,1.6,1.6,95,0.00,,BKN250,44.43,VWS V14.01,2013-01-10 00:15:00,
2013-01-09 18:19:00,66.0,64.6,30.36,ENE,68,0.0,0.0,95,0.00,,OVC007,44.43,VWS V14.01,2013-01-10 00:19:00,
2013-01-09 18:20:00,65.7,64.2,30.36,ESE,112,0.0,1.3,95,0.00,,BKN120,44.43,VWS V14.01,2013-01-10 00:20:00,
2013-01-09 18:24:00,66.0,64.6,30.36,NE,45,0.0,0.9,95,0.00,,OVC007,44.43,VWS V14.01,2013-01-10 00:24:00,
2013-01-09 18:25:00,66.0,64.6,30.36,NE,45,0.9,1.1,95,0.00,,BKN250,44.43,VWS V14.01,2013-01-10 00:25:00,
2013-01-09 18:29:00,66.0,64.6,30.36,SSE,158,1.3,1.3,95,0.00,,OVC007,44.43,VWS V14.01,2013-01-10 00:29:00,
2013-01-09 18:30:00,65.7,64.2,30.36,ENE,68,1.1,1.1,95,0.00,,BKN120,44.43,VWS V14.01,2013-01-10 00:30:00,
2013-01-09 18:34:00,65.8,64.4,30.36,ENE,68,0.0,2.9,95,0.00,,OVC007,44.43,VWS V14.01,2013-01-10 00:34:00,
2013-01-09 18:35:00,65.8,64.4,30.36,North,0,0.0,2.0,95,0.00,,BKN250,44.43,VWS V14.01,2013-01-10 00:35:00,
2013-01-09 18:39:00,65.8,64.4,30.36,West,270,0.0,0.0,95,0.00,,OVC007,44.43,VWS V14.01,2013-01-10 00:39:00,
2013-01-09 18:40:00,65.8,64.4,30.36,NNE,22,0.0,2.9,95,0.00,,BKN250,44.43,VWS V14.01,2013-01-10 00:40:00,
2013-01-09 18:44:00,65.8,64.4,30.36,NNE,22,2.2,2.2,95,0.00,,OVC007,44.43,VWS V14.01,2013-01-10 00:44:00,
2013-01-09 18:45:00,65.5,64.3,30.36,ENE,68,0.0,1.6,96,0.00,,BKN120,44.43,VWS V14.01,2013-01-10 00:45:00,
2013-01-09 18:49:00,65.8,64.4,30.36,NE,45,0.0,1.1,95,0.00,,OVC007,44.43,VWS V14.01,2013-01-10 00:49:00,
2013-01-09 18:50:00,65.8,64.4,30.36,ENE,68,0.0,2.2,95,0.00,,BKN250,44.43,VWS V14.01,2013-01-10 00:50:00,
2013-01-09 18:54:00,65.8,64.4,30.36,ENE,68,1.1,2.9,95,0.00,,OVC007,44.43,VWS V14.01,2013-01-10 00:54:00,
2013-01-09 18:55:00,65.5,64.3,30.36,ENE,68,0.0,0.9,96,0.00,,BKN120,44.43,VWS V14.01,2013-01-10 00:55:00,
2013-01-09 18:59:00,65.7,64.2,30.36,ENE,68,0.0,0.0,95,0.00,,OVC007,44.43,VWS V14.01,2013-01-10 00:59:00,
2013-01-09 19:00:00,65.7,64.2,30.36,NW,315,0.0,2.9,95,0.00,,BKN250,44.43,VWS V14.01,2013-01-10 01:00:00,
2013-01-09 19:05:00,65.7,64.2,30.36,ENE,68,0.0,3.1,95,0.00,,OVC007,44.43,VWS V14.01,2013-01-10 01:05:00,
2013-01-09 19:10:00,65.7,64.2,30.36,North,0,1.3,3.1,95,0.00,,OVC007,44.43,VWS V14.01,2013-01-10 01:10:00,
2013-01-09 19:15:00,65.7,64.2,30.36,ESE,112,1.3,1.3,95,0.00,,OVC007,44.43,VWS V14.01,2013-01-10 01:15:00,
2013-01-09 19:20:00,65.7,64.2,30.36,NE,45,1.3,1.3,95,0.00,,OVC007,44.43,VWS V14.01,2013-01-10 01:20:00,
2013-01-09 19:25:00,65.7,64.2,30.36,ENE,68,0.0,0.0,95,0.00,,OVC007,44.43,VWS V14.01,2013-01-10 01:25:00,
2013-01-09 19:30:00,65.7,64.5,30.36,ENE,68,0.0,1.1,96,0.00,,OVC007,44.43,VWS V14.01,2013-01-10 01:30:00,
2013-01-09 19:35:00,65.5,64.3,30.36,WNW,292,0.0,1.3,96,0.00,,OVC007,44.43,VWS V14.01,2013-01-10 01:35:00,
2013-01-09 19:40:00,65.7,64.5,30.36,ENE,68,0.0,1.6,96,0.00,,OVC007,44.43,VWS V14.01,2013-01-10 01:40:00,
2013-01-09 19:45:00,65.5,64.3,30.36,ENE,68,0.0,2.5,96,0.00,,OVC007,44.43,VWS V14.01,2013-01-10 01:45:00,
2013-01-09 19:50:00,65.5,64.3,30.36,ENE,68,0.0,0.9,96,0.00,,OVC007,44.43,VWS V14.01,2013-01-10 01:50:00,
2013-01-09 19:55:00,65.5,64.3,30.36,ENE,68,0.0,0.0,96,0.00,,OVC007,44.43,VWS V14.01,2013-01-10 01:55:00,
2013-01-09 20:00:00,65.5,64.3,30.36,NNE,22,2.5,2.5,96,0.00,,OVC007,44.43,VWS V14.01,2013-01-10 02:00:00,
2013-01-09 20:05:00,65.5,64.3,30.36,ENE,68,1.6,1.6,96,0.00,,,44.43,VWS V14.01,2013-01-10 02:05:00,
2013-01-09 20:10:00,65.5,64.3,30.36,NE,45,0.0,0.0,96,0.00,,,44.43,VWS V14.01,2013-01-10 02:10:00,
2013-01-09 20:15:00,65.5,64.3,30.36,NE,45,0.0,0.0,96,0.00,,BKN250,44.43,VWS V14.01,2013-01-10 02:15:00,
2013-01-09 20:16:00,65.5,64.3,30.36,ENE,68,2.7,2.7,96,0.00,,,44.43,VWS V14.01,2013-01-10 02:16:00,
2013-01-09 20:20:00,65.5,64.3,30.36,NNE,22,1.1,2.7,96,0.00,,BKN250,44.43,VWS V14.01,2013-01-10 02:20:00,
2013-01-09 20:21:00,65.5,64.3,30.36,NNE,22,1.3,1.3,96,0.00,,,44.43,VWS V14.01,2013-01-10 02:21:00,
2013-01-09 20:25:00,65.5,64.3,30.36,ENE,68,0.0,2.0,96,0.00,,BKN250,44.43,VWS V14.01,2013-01-10 02:25:00,
2013-01-09 20:26:00,65.5,64.3,30.36,ENE,68,1.1,2.2,96,0.00,,,44.43,VWS V14.01,2013-01-10 02:26:00,
2013-01-09 20:30:00,65.5,64.3,30.36,ENE,68,0.0,2.2,96,0.00,,BKN250,44.43,VWS V14.01,2013-01-10 02:30:00,
2013-01-09 20:31:00,65.5,64.3,30.36,SSE,158,0.0,0.9,96,0.00,,,44.43,VWS V14.01,2013-01-10 02:31:00,
2013-01-09 20:35:00,65.5,64.3,30.36,NNE,22,0.0,1.3,96,0.00,,BKN250,44.43,VWS V14.01,2013-01-10 02:35:00,
2013-01-09 20:36:00,65.5,64.3,30.36,ENE,68,2.2,2.2,96,0.00,,,44.43,VWS V14.01,2013-01-10 02:36:00,
2013-01-09 20:40:00,65.5,64.3,30.36,ENE,68,0.0,2.2,96,0.00,,BKN250,44.43,VWS V14.01,2013-01-10 02:40:00,
2013-01-09 20:41:00,65.5,64.3,30.36,ESE,112,0.0,1.6,96,0.00,,,44.43,VWS V14.01,2013-01-10 02:41:00,
2013-01-09 20:45:00,65.5,64.3,30.36,NNE,22,1.3,2.2,96,0.00,,BKN250,44.43,VWS V14.01,2013-01-10 02:45:00,
2013-01-09 20:46:00,65.5,64.3,30.36,ENE,68,0.0,2.2,96,0.00,,,44.43,VWS V14.01,2013-01-10 02:46:00,
2013-01-09 20:50:00,65.5,64.3,30.36,NE,45,0.9,2.2,96,0.00,,BKN250,44.43,VWS V14.01,2013-01-10 02:50:00,
2013-01-09 20:51:00,65.5,64.3,30.36,ENE,68,0.0,2.0,96,0.00,,,44.43,VWS V14.01,2013-01-10 02:51:00,
2013-01-09 20:55:00,65.3,64.1,30.36,NE,45,0.0,2.0,96,0.00,,BKN250,44.43,VWS V14.01,2013-01-10 02:55:00,
2013-01-09 20:56:00,65.5,64.3,30.36,NNE,22,0.0,1.3,96,0.00,,,44.43,VWS V14.01,2013-01-10 02:56:00,
2013-01-09 21:00:00,65.5,64.3,30.36,NE,45,0.0,2.0,96,0.00,,BKN250,44.43,VWS V14.01,2013-01-10 03:00:00,
2013-01-09 21:01:00,65.5,64.3,30.36,ENE,68,0.9,2.5,96,0.00,,,44.43,VWS V14.01,2013-01-10 03:01:00,
2013-01-09 21:05:00,65.5,64.3,30.36,NNE,22,1.1,2.5,96,0.00,,BKN250,44.43,VWS V14.01,2013-01-10 03:05:00,
2013-01-09 21:06:00,65.5,64.3,30.36,ENE,68,0.0,1.1,96,0.00,,,44.43,VWS V14.01,2013-01-10 03:06:00,
2013-01-09 21:10:00,65.3,64.1,30.36,ENE,68,0.0,1.1,96,0.00,,BKN250,44.43,VWS V14.01,2013-01-10 03:10:00,
2013-01-09 21:11:00,65.3,64.1,30.36,SSE,158,0.0,0.9,96,0.00,,,44.43,VWS V14.01,2013-01-10 03:11:00,
2013-01-09 21:15:00,65.3,64.1,30.36,SSE,158,0.0,0.9,96,0.00,,BKN250,44.43,VWS V14.01,2013-01-10 03:15:00,
2013-01-09 21:16:00,65.5,64.3,30.36,ESE,112,0.0,1.6,96,0.00,,,44.43,VWS V14.01,2013-01-10 03:16:00,
2013-01-09 21:20:00,65.5,64.3,30.39,SW,225,0.0,1.6,96,0.00,,BKN250,44.43,VWS V14.01,2013-01-10 03:20:00,
2013-01-09 21:21:00,65.5,64.3,30.39,ENE,68,0.0,1.3,96,0.00,,,44.43,VWS V14.01,2013-01-10 03:21:00,
2013-01-09 21:25:00,65.5,64.3,30.39,ENE,68,0.0,1.3,96,0.00,,BKN250,44.43,VWS V14.01,2013-01-10 03:25:00,
2013-01-09 21:26:00,65.5,64.3,30.39,East,90,1.3,3.1,96,0.00,,,44.43,VWS V14.01,2013-01-10 03:26:00,
2013-01-09 21:30:00,65.5,64.3,30.39,ENE,68,0.0,3.1,96,0.00,,BKN250,44.43,VWS V14.01,2013-01-10 03:30:00,
2013-01-09 21:31:00,65.5,64.3,30.39,East,90,2.5,2.5,96,0.00,,,44.43,VWS V14.01,2013-01-10 03:31:00,
2013-01-09 21:35:00,65.5,64.3,30.39,NE,45,0.0,2.5,96,0.00,,BKN250,44.43,VWS V14.01,2013-01-10 03:35:00,
2013-01-09 21:36:00,65.5,64.3,30.39,NE,45,0.0,2.5,96,0.00,,,44.43,VWS V14.01,2013-01-10 03:36:00,
2013-01-09 21:40:00,65.5,64.3,30.39,East,90,1.6,2.5,96,0.00,,BKN250,44.43,VWS V14.01,2013-01-10 03:40:00,
2013-01-09 21:41:00,65.5,64.3,30.39,NNE,22,0.0,3.1,96,0.00,,,44.43,VWS V14.01,2013-01-10 03:41:00,
2013-01-09 21:45:00,65.5,64.3,30.39,ENE,68,0.0,3.1,96,0.00,,BKN250,44.43,VWS V14.01,2013-01-10 03:45:00,
2013-01-09 21:46:00,65.5,64.3,30.39,NE,45,0.0,2.2,96,0.00,,,44.43,VWS V14.01,2013-01-10 03:46:00,
2013-01-09 21:50:00,65.5,64.3,30.39,ENE,68,0.0,2.2,96,0.00,,BKN250,44.43,VWS V14.01,2013-01-10 03:50:00,
2013-01-09 21:51:00,65.5,64.3,30.39,NE,45,2.5,2.5,96,0.00,,,44.43,VWS V14.01,2013-01-10 03:51:00,
2013-01-09 21:55:00,65.5,64.3,30.39,NNE,22,0.0,2.5,96,0.00,,BKN250,44.43,VWS V14.01,2013-01-10 03:55:00,
2013-01-09 21:56:00,65.5,64.3,30.39,East,90,0.0,1.3,96,0.00,,,44.43,VWS V14.01,2013-01-10 03:56:00,
2013-01-09 22:00:00,65.5,64.3,30.39,East,90,0.0,1.3,96,0.00,,BKN250,44.43,VWS V14.01,2013-01-10 04:00:00,
2013-01-09 22:02:00,65.5,64.3,30.39,East,90,0.0,0.0,96,0.00,,,44.43,VWS V14.01,2013-01-10 04:02:00,
2013-01-09 22:05:00,65.5,64.3,30.39,NNE,22,1.1,1.1,96,0.00,,BKN250,44.43,VWS V14.01,2013-01-10 04:05:00,
2013-01-09 22:07:00,65.5,64.3,30.39,ENE,68,2.5,2.7,96,0.00,,,44.43,VWS V14.01,2013-01-10 04:07:00,
2013-01-09 22:10:00,65.5,64.3,30.39,East,90,0.9,2.7,96,0.00,,BKN250,44.43,VWS V14.01,2013-01-10 04:10:00,
2013-01-09 22:12:00,65.5,64.3,30.39,ENE,68,0.0,1.6,96,0.00,,,44.43,VWS V14.01,2013-01-10 04:12:00,
2013-01-09 22:15:00,65.5,64.3,30.39,ENE,68,0.9,1.6,96,0.00,,BKN250,44.43,VWS V14.01,2013-01-10 04:15:00,
2013-01-09 22:17:00,65.5,64.3,30.39,ENE,68,1.1,2.7,96,0.00,,,44.43,VWS V14.01,2013-01-10 04:17:00,
2013-01-09 22:20:00,65.5,64.3,30.39,ENE,68,0.0,2.7,96,0.00,,BKN250,44.43,VWS V14.01,2013-01-10 04:20:00,
2013-01-09 22:22:00,65.5,64.3,30.39,ESE,112,0.0,1.1,96,0.00,,,44.43,VWS V14.01,2013-01-10 04:22:00,
2013-01-09 22:25:00,65.5,64.3,30.39,ESE,112,0.0,1.1,96,0.00,,BKN250,44.43,VWS V14.01,2013-01-10 04:25:00,
2013-01-09 22:27:00,65.5,64.3,30.39,ENE,68,0.0,2.9,96,0.00,,,44.43,VWS V14.01,2013-01-10 04:27:00,
2013-01-09 22:30:00,65.5,64.3,30.39,ENE,68,0.0,2.9,96,0.00,,BKN250,44.43,VWS V14.01,2013-01-10 04:30:00,
2013-01-09 22:32:00,65.5,64.3,30.39,SSE,158,0.0,1.1,96,0.00,,,44.43,VWS V14.01,2013-01-10 04:32:00,
2013-01-09 22:35:00,65.5,64.3,30.39,SSE,158,0.0,1.1,96,0.00,,BKN250,44.43,VWS V14.01,2013-01-10 04:35:00,
2013-01-09 22:37:00,65.5,64.3,30.39,SE,135,0.0,0.9,96,0.00,,,44.43,VWS V14.01,2013-01-10 04:37:00,
2013-01-09 22:40:00,65.5,64.3,30.39,SE,135,0.0,0.9,96,0.00,,BKN250,44.43,VWS V14.01,2013-01-10 04:40:00,
2013-01-09 22:42:00,65.5,64.3,30.39,ENE,68,0.0,1.6,96,0.00,,,44.43,VWS V14.01,2013-01-10 04:42:00,
2013-01-09 22:45:00,65.5,64.3,30.39,ENE,68,0.0,1.6,96,0.00,,BKN250,44.43,VWS V14.01,2013-01-10 04:45:00,
2013-01-09 22:47:00,65.5,64.3,30.39,ENE,68,0.0,1.1,96,0.00,,,44.43,VWS V14.01,2013-01-10 04:47:00,
2013-01-09 22:50:00,65.5,64.3,30.39,ENE,68,0.0,1.1,96,0.00,,BKN250,44.43,VWS V14.01,2013-01-10 04:50:00,
2013-01-09 22:52:00,65.5,64.3,30.39,SE,135,0.0,1.3,96,0.00,,,44.43,VWS V14.01,2013-01-10 04:52:00,
2013-01-09 22:55:00,65.5,64.3,30.39,NNE,22,0.0,1.6,96,0.00,,BKN250,44.43,VWS V14.01,2013-01-10 04:55:00,
2013-01-09 22:57:00,65.5,64.3,30.39,ENE,68,0.0,0.9,96,0.00,,,44.43,VWS V14.01,2013-01-10 04:57:00,
2013-01-09 23:00:00,65.5,64.3,30.39,ENE,68,0.0,0.9,96,0.00,,BKN250,44.43,VWS V14.01,2013-01-10 05:00:00,
2013-01-09 23:02:00,65.5,64.3,30.39,ENE,68,0.0,0.0,96,0.00,,,44.43,VWS V14.01,2013-01-10 05:02:00,
2013-01-09 23:03:00,65.7,64.5,30.39,NE,45,0.9,0.9,96,0.00,,,44.43,VWS V14.01,2013-01-10 05:03:00,
2013-01-09 23:05:00,65.7,64.5,30.39,NNE,22,1.6,1.6,96,0.00,,BKN250,44.43,VWS V14.01,2013-01-10 05:05:00,
2013-01-09 23:08:00,65.7,64.5,30.39,ENE,68,0.0,0.0,96,0.00,,,44.43,VWS V14.01,2013-01-10 05:08:00,
2013-01-09 23:10:00,65.7,64.5,30.39,ENE,68,0.0,1.6,96,0.00,,BKN250,44.43,VWS V14.01,2013-01-10 05:10:00,
2013-01-09 23:13:00,65.7,64.5,30.39,ENE,68,0.0,2.2,96,0.00,,,44.43,VWS V14.01,2013-01-10 05:13:00,
2013-01-09 23:15:00,65.7,64.5,30.39,ENE,68,2.2,2.2,96,0.00,,BKN250,44.43,VWS V14.01,2013-01-10 05:15:00,
2013-01-09 23:18:00,65.8,64.7,30.39,NE,45,0.0,1.6,96,0.00,,,44.43,VWS V14.01,2013-01-10 05:18:00,
2013-01-09 23:20:00,65.8,64.7,30.39,NE,45,1.6,2.7,96,0.00,,BKN250,44.43,VWS V14.01,2013-01-10 05:20:00,
2013-01-09 23:23:00,65.8,64.7,30.39,NNE,22,0.0,0.0,96,0.00,,,44.43,VWS V14.01,2013-01-10 05:23:00,
2013-01-09 23:25:00,65.8,64.7,30.39,NE,45,0.0,2.9,96,0.00,,BKN250,44.43,VWS V14.01,2013-01-10 05:25:00,
2013-01-09 23:29:00,65.8,64.7,30.39,NE,45,0.0,0.0,96,0.00,,,44.43,VWS V14.01,2013-01-10 05:29:00,
2013-01-09 23:30:00,65.8,64.7,30.39,NNE,22,0.0,2.2,96,0.00,,BKN250,44.43,VWS V14.01,2013-01-10 05:30:00,
2013-01-09 23:34:00,65.8,64.7,30.39,ENE,68,0.0,0.0,96,0.00,,,44.43,VWS V14.01,2013-01-10 05:34:00,
2013-01-09 23:35:00,65.8,64.7,30.39,ENE,68,0.0,2.2,96,0.00,,BKN250,44.43,VWS V14.01,2013-01-10 05:35:00,
2013-01-09 23:39:00,65.8,64.7,30.39,NE,45,0.0,0.0,96,0.00,,,44.43,VWS V14.01,2013-01-10 05:39:00,
2013-01-09 23:40:00,65.8,64.7,30.39,NE,45,0.0,3.4,96,0.00,,BKN250,44.43,VWS V14.01,2013-01-10 05:40:00,
2013-01-09 23:44:00,65.8,64.7,30.39,ENE,68,1.1,3.1,96,0.00,,,44.43,VWS V14.01,2013-01-10 05:44:00,
2013-01-09 23:45:00,65.8,64.7,30.39,NE,45,3.1,3.1,96,0.00,,BKN250,44.43,VWS V14.01,2013-01-10 05:45:00,
2013-01-09 23:49:00,65.8,64.7,30.39,ENE,68,0.0,0.0,96,0.00,,,44.43,VWS V14.01,2013-01-10 05:49:00,
2013-01-09 23:50:00,65.8,64.7,30.39,NE,45,0.0,3.1,96,0.00,,BKN250,44.43,VWS V14.01,2013-01-10 05:50:00,
2013-01-09 23:54:00,65.8,64.7,30.39,ENE,68,0.0,0.0,96,0.00,,,44.43,VWS V14.01,2013-01-10 05:54:00,
2013-01-09 23:55:00,65.8,64.7,30.39,ENE,68,0.0,2.7,96,0.00,,BKN250,44.43,VWS V14.01,2013-01-10 05:55:00,
2013-01-09 23:59:00,65.8,64.7,30.39,ENE,68,0.0,0.0,96,0.00,,,0.00,VWS V14.01,2013-01-10 05:59:00,